Home   Weather   Regina   Past weeks
Flag for Canada

Past Weather in Regina, Saskatchewan, Canada — Yesterday and Last 2 Weeks

Now
63 °F

Passing clouds.


Feels Like: 63 °F
Forecast: 74 / 54 °F
Wind: 5 mph from South

Location: Regina Weather Station

Current Time: Jul 21, 2019 at 9:07:23 am

Latest Report: Jul 21, 2019 at 8:00 am


Visibility: 15 mi

Pressure: 30.24 "Hg (28.26 "Hg at 577m altitude)

Humidity: 83%

Dew Point: 57 °F

Location of ReginaLocation

Past Weather in Regina — Graph

°F

Regina Temperature Yesterday

Maximum temperature yesterday: 73 °F (at 4:00 pm)
Minimum temperature yesterday: 46 °F (at 4:00 am)
Average temperature yesterday: 60 °F

High & Low Weather Summary for the Past Weeks

 TemperatureHumidityPressure
High86 °F (Jul 14, 3:00 pm)100% (Jul 7, 5:00 am)30.28 "Hg (Jul 7, 5:00 am)
Low46 °F (Jul 10, 3:00 am)42% (Jul 18, 4:00 pm)29.50 "Hg (Jul 18, 4:00 pm)
Average66 °F77%29.89 "Hg
* Reported Jul 6 7:00 am — Jul 21 7:00 am, Regina. Weather by CustomWeather, © 2019

Note: Actual official high and low records may vary slightly from our data, if they occured in-between our weather recording intervals... More about our weather records

Advertising

Regina Weather History for the Previous 24 Hours

Scroll right to see more
 ConditionsComfort  
Time TempWeatherWind HumidityBarometerVisibility
7:00 am
Sun, Jul 21
61 °FPassing clouds.5 mph88%30.22 "Hg15 mi
6:00 am59 °FScattered clouds.5 mph88%30.20 "Hg15 mi
5:00 am57 °FPartly cloudy.8 mph94%30.19 "Hg15 mi
4:00 am55 °FPartly cloudy.6 mph94%30.18 "Hg15 mi
3:00 am55 °FPassing clouds.5 mph94%30.18 "Hg15 mi
2:00 am59 °FPassing clouds.7 mph82%30.16 "Hg15 mi
1:00 am61 °FPassing clouds.9 mph77%30.16 "Hg15 mi
12:00 am61 °FPassing clouds.12 mph83%30.16 "Hg15 mi
11:01 pm
Sat, Jul 20
63 °FPassing clouds.9 mph77%30.15 "Hg15 mi
10:00 pm63 °FPassing clouds.7 mph77%30.13 "Hg15 mi
9:00 pm64 °FPassing clouds.6 mph64%30.10 "Hg15 mi
8:00 pm70 °FPassing clouds.9 mph53%30.08 "Hg15 mi
7:00 pm72 °FPassing clouds.12 mph50%30.08 "Hg15 mi
6:00 pm72 °FPassing clouds.13 mph50%30.08 "Hg15 mi
5:00 pm72 °FScattered clouds.13 mph50%30.07 "Hg15 mi
4:00 pm73 °FScattered clouds.10 mph44%30.05 "Hg15 mi
3:00 pm72 °FScattered clouds.9 mph50%30.05 "Hg15 mi
2:00 pm70 °FPartly sunny.5 mph53%30.05 "Hg15 mi
1:00 pm68 °FPartly sunny.3 mph60%30.04 "Hg15 mi
12:00 pm64 °FScattered clouds.2 mph68%30.04 "Hg15 mi
11:00 am63 °FPartly sunny.3 mph73%30.02 "Hg15 mi
10:20 am59 °FPartly sunny.7 mph88%30.04 "Hg15 mi
10:00 am59 °FPartly sunny.7 mph88%30.03 "Hg15 mi
9:40 am57 °FLow clouds.6 mph94%30.02 "Hg15 mi
9:19 am55 °FDrizzle. Fog.8 mph94%30.02 "Hg6 mi
Weather by CustomWeather, © 2019

See weather overview